Wind_Speed
22 16 12 9 7 5 3 3 4 5 5 4 4 5 4 3 1 3 5 6 7 8 10 12 14 14 12 13 13 13 13 12 12 12 12 13 13 13 13 12 12 12 12 12 12 13 14 14 14 14 13 13 11 11 12 14 16 18 18 20 21 22 24 26 29 36 37 35 36 37 36 34 35 35 34 33 31 29 30 30 28 27 28 29 30
22 17 13 10 7 5 4 4 5 6 5 5 4 3 3 2 1 3 6 7 8 10 11 12 13 13 13 14 15 16 17 16 15 15 14 14 14 15 15 14 13 14 14 13 13 14 15 15 15 15 14 13 12 12 13 14 16 17 18 20 22 23 25 27 31 35 39 38 38 39 37 35 34 33 32 32 30 27 27 28 27 28 30 31 32
23 18 13 10 7 6 5 6 7 7 6 5 4 2 1 2 0 4 7 9 11 11 11 12 13 13 13 14 15 17 18 19 19 18 16 15 15 16 16 15 15 15 16 15 14 13 14 16 16 16 16 15 13 13 15 15 16 17 19 21 23 24 26 28 31 34 39 40 40 41 40 36 35 33 31 30 30 27 27 28 28 29 30 32 34
24 20 15 11 9 7 6 6 7 7 6 4 3 3 2 1 2 6 8 9 9 9 10 12 12 12 12 13 14 16 18 19 20 21 19 16 15 16 16 17 16 16 16 16 15 14 15 17 17 18 18 16 14 14 15 16 17 18 20 22 24 26 27 29 31 33 37 41 42 42 40 36 35 34 30 29 29 29 28 30 30 30 30 31 33
27 22 16 12 10 8 6 7 6 6 6 5 4 4 4 5 6 8 9 10 10 11 13 15 14 13 13 13 14 15 16 18 19 21 20 16 14 15 16 17 17 16 16 16 15 15 16 18 19 19 19 18 16 15 16 18 19 20 22 24 25 27 28 29 31 33 36 40 42 43 41 36 33 33 29 26 27 28 29 30 31 31 30 29 31
28 23 17 14 11 9 7 7 6 6 6 5 4 4 5 8 10 11 13 14 14 15 17 18 17 16 15 15 15 16 17 18 20 22 20 15 14 15 15 16 16 15 15 16 16 17 17 19 19 19 20 20 19 17 18 20 22 23 25 27 28 29 29 29 31 33 36 40 42 42 40 36 32 32 29 25 25 27 27 28 30 31 31 31 32
28 23 17 14 11 8 7 5 5 7 7 5 3 4 5 7 9 10 12 13 15 17 19 18 17 16 15 16 17 17 18 19 20 19 17 15 16 16 15 15 15 15 15 16 17 17 18 19 19 18 20 21 20 19 20 21 23 25 27 28 30 30 29 29 31 33 36 39 41 41 40 36 32 31 30 26 24 25 26 27 30 31 32 33 34
28 22 16 13 10 9 8 5 5 8 8 5 3 4 7 8 8 9 11 11 13 16 16 15 15 14 15 16 15 14 15 17 17 16 15 16 17 16 15 15 16 16 16 16 16 18 19 19 19 19 19 20 21 21 21 22 23 25 27 28 29 29 29 30 32 33 35 38 41 40 39 37 34 32 29 27 26 25 24 25 29 32 33 34 35
29 22 16 13 11 11 11 8 7 9 8 6 4 6 8 8 8 8 8 10 11 12 12 13 13 14 15 14 13 14 16 17 16 15 15 16 16 16 16 16 17 18 16 15 16 17 19 20 20 20 20 21 22 23 23 24 25 27 27 26 27 28 28 30 32 33 35 37 39 40 40 40 39 36 33 31 29 29 26 25 28 31 33 35 36
31 22 16 14 11 12 15 13 11 10 9 6 5 6 7 7 6 6 7 9 10 11 11 13 14 14 14 14 14 15 17 16 15 15 16 17 17 17 18 17 17 17 16 15 17 17 18 18 18 19 20 21 23 24 25 26 28 29 28 26 25 26 28 30 31 32 34 36 38 39 40 42 42 40 39 35 32 31 29 27 29 30 31 35 37
30 20 16 14 10 13 18 17 14 12 10 8 7 7 6 6 6 7 8 9 9 10 12 13 14 14 14 15 16 16 16 16 16 16 17 18 18 18 18 18 18 18 17 17 17 18 18 17 17 18 19 21 23 24 25 27 28 28 27 25 24 25 27 29 29 32 34 35 37 39 40 43 44 43 41 39 36 34 31 29 28 29 30 33 36
31 21 17 16 11 12 19 20 16 13 11 10 10 8 7 8 8 9 11 11 11 11 12 13 15 15 15 16 17 17 17 16 17 18 18 19 20 19 19 19 19 20 21 20 19 19 18 18 17 18 19 20 21 22 24 25 25 24 23 23 22 24 26 26 27 31 33 33 37 40 42 43 45 45 43 41 39 37 35 33 30 30 30 32 36
33 23 16 13 11 13 20 21 16 13 12 12 12 11 11 11 11 11 12 12 13 14 14 15 16 16 16 17 18 18 19 19 19 20 20 20 19 18 18 19 21 22 23 22 21 20 19 18 18 18 18 19 19 20 21 22 20 19 20 21 22 24 25 24 26 30 32 33 37 41 43 44 46 47 43 40 40 40 39 38 34 31 31 32 35
32 24 15 11 13 18 23 21 16 13 13 14 15 15 15 14 13 13 13 14 15 16 17 18 18 17 17 18 19 20 20 20 20 20 19 18 18 18 19 19 20 22 23 23 23 21 20 19 19 18 18 18 18 18 18 18 19 19 20 22 23 24 25 24 26 31 33 34 38 42 44 44 45 45 40 36 37 39 40 40 38 34 33 33 33
29 24 17 14 18 24 26 22 17 15 15 16 17 18 18 17 16 14 14 14 15 17 19 19 18 18 18 19 20 21 21 21 21 21 19 19 19 19 19 18 19 21 22 22 21 20 20 20 19 18 19 18 17 17 18 19 19 20 22 24 24 25 25 23 26 32 34 35 40 44 45 45 44 43 39 35 35 36 38 40 39 36 34 33 33
30 25 21 21 25 29 28 23 19 18 18 19 20 20 21 20 18 17 16 15 15 17 19 20 19 19 19 19 19 20 20 21 21 20 19 19 20 20 19 19 20 21 21 20 18 18 19 19 18 18 18 18 18 19 20 21 21 22 24 25 25 26 24 23 26 30 32 36 42 45 45 45 44 43 39 35 34 35 36 39 41 39 35 33 33
31 29 27 26 28 30 29 26 22 20 20 21 22 23 22 21 19 18 16 16 16 18 20 21 19 18 17 16 17 18 19 20 20 19 18 19 20 20 20 20 22 22 21 18 17 17 18 18 17 17 17 17 19 20 20 21 23 24 25 25 26 26 24 23 28 31 33 38 45 46 44 45 47 45 40 34 30 31 34 40 43 42 38 34 33
34 32 29 27 28 30 29 27 24 22 23 24 25 24 23 22 20 18 17 17 18 18 20 21 19 16 15 17 19 21 22 22 21 21 22 20 20 20 20 21 21 20 18 17 17 17 17 16 16 16 16 18 20 20 21 23 24 24 24 25 26 26 24 25 30 34 37 42 47 47 44 45 48 47 40 31 25 27 34 43 46 45 43 40 35
35 32 29 28 29 30 29 27 25 25 26 26 26 25 24 22 20 18 17 17 16 17 20 22 20 18 18 21 23 23 24 24 23 23 22 21 20 20 19 20 19 18 17 17 17 16 16 16 15 14 15 17 19 20 22 24 24 23 22 24 26 26 25 28 31 35 39 44 49 50 48 47 50 49 42 31 21 25 33 40 45 46 47 45 38
34 32 30 31 33 32 29 27 26 26 26 26 25 25 24 22 19 18 17 16 16 18 22 23 22 21 21 22 23 24 26 27 25 23 20 19 20 20 19 19 17 16 16 17 17 16 16 16 15 13 14 16 17 19 22 23 23 22 22 23 25 26 27 29 32 34 37 42 48 50 49 49 52 51 45 35 20 20 26 31 38 44 47 46 41
33 32 32 34 34 31 28 27 26 25 26 26 25 24 24 22 20 18 17 17 19 22 23 23 23 23 22 21 22 24 25 25 23 20 18 17 18 19 19 18 17 16 16 17 18 18 17 16 14 12 13 15 17 19 21 21 21 21 22 23 25 25 27 29 31 31 34 40 46 49 50 51 53 53 49 41 23 13 19 23 30 39 44 46 43
32 32 32 32 30 28 28 27 26 26 26 26 24 22 21 22 23 21 18 19 22 23 23 24 25 24 24 22 21 21 21 20 19 17 15 16 17 18 18 17 16 16 18 19 19 17 17 16 13 12 13 15 17 18 19 19 19 20 22 23 24 24 25 26 27 27 31 39 45 49 52 52 54 54 52 45 27 8 13 18 23 33 41 46 44
27 28 28 28 27 26 27 27 27 26 25 24 22 21 20 22 25 24 20 21 22 23 24 26 25 23 22 21 19 18 18 18 16 15 15 16 18 17 16 15 16 17 19 20 19 17 16 15 13 12 13 15 15 16 17 18 18 20 21 22 22 23 22 22 23 24 30 37 44 49 52 51 53 54 51 49 37 13 7 10 14 25 35 42 43
17 18 20 23 24 24 25 25 25 24 23 22 21 22 23 25 26 23 20 20 22 24 24 23 21 19 18 17 16 18 18 16 15 15 16 18 18 15 14 15 17 18 18 18 18 17 16 14 12 12 13 13 13 14 16 18 19 19 19 20 20 20 19 19 22 23 27 33 40 47 50 50 52 53 49 50 45 20 1 6 7 13 26 36 38
12 12 14 18 21 22 23 23 23 23 23 22 21 23 25 25 24 22 20 18 20 21 20 18 17 17 16 15 16 17 16 16 16 17 18 18 15 13 14 16 17 17 17 17 16 15 15 14 12 11 11 12 12 12 15 18 17 17 17 18 18 19 18 19 21 22 24 29 35 43 48 49 50 51 47 49 48 27 7 3 3 2 14 30 36
13 13 13 15 17 18 19 20 21 21 21 21 22 24 24 22 20 18 16 15 17 17 16 16 16 15 13 14 15 15 15 17 18 18 17 15 12 13 16 16 15 14 14 14 13 12 12 11 9 8 8 10 11 13 16 18 15 14 16 16 16 17 18 19 21 21 21 25 31 39 46 48 48 49 49 50 52 44 24 7 6 5 8 21 31
12 12 11 11 12 14 15 17 19 19 19 19 19 19 18 17 15 14 13 13 15 16 15 16 16 14 13 15 17 16 16 18 18 16 16 15 14 15 16 14 13 12 11 11 10 9 7 6 5 6 7 8 11 14 16 15 13 12 14 14 14 15 17 18 20 19 19 21 26 33 42 46 46 49 51 51 51 51 43 24 6 11 15 19 24
8 8 7 7 9 11 13 15 16 16 16 15 13 12 12 13 12 11 12 13 14 14 14 14 14 14 15 17 18 18 18 18 16 14 15 15 15 14 13 11 11 10 9 9 7 4 4 4 5 6 8 10 12 13 12 10 10 11 12 12 13 14 16 17 18 19 19 19 22 28 37 43 45 47 49 49 49 50 49 41 26 8 10 17 21
7 7 8 9 11 12 13 13 13 14 14 12 11 11 11 11 11 10 10 11 12 12 12 11 13 15 17 17 18 17 17 16 14 13 13 13 12 11 10 10 8 7 8 7 4 2 4 7 6 7 10 11 11 10 8 8 8 9 10 11 13 15 16 17 19 21 22 21 21 24 30 37 40 42 45 47 46 46 47 47 42 32 19 9 6
7 8 8 10 12 13 13 12 12 13 13 13 12 13 12 12 12 12 12 12 13 12 11 12 14 15 16 15 15 14 13 13 13 13 13 12 10 9 9 8 7 5 5 4 3 4 7 8 8 9 10 10 8 7 8 8 9 9 10 12 14 15 17 18 20 22 23 23 23 23 26 30 33 36 40 44 44 43 44 46 46 44 38 32 24
6 6 8 10 12 13 13 11 10 11 13 14 14 13 13 14 14 13 12 13 13 13 13 14 15 15 14 13 12 11 11 12 12 12 11 9 8 7 7 6 5 4 3 4 5 7 8 8 8 8 7 6 6 7 8 8 8 9 11 13 14 15 16 18 19 21 22 23 24 24 24 26 27 29 33 38 40 40 41 42 44 45 44 42 38
5 5 8 13 14 14 13 11 9 10 13 14 14 13 12 12 13 12 12 13 13 14 14 14 15 14 11 9 8 8 8 8 8 8 7 6 6 6 6 6 4 3 4 6 7 9 9 8 6 4 4 5 6 8 8 7 8 10 12 13 13 14 15 16 18 19 20 21 23 23 23 24 24 24 28 32 35 36 37 38 40 42 42 42 42
4 6 10 14 15 15 14 12 9 10 12 13 13 12 12 11 11 11 12 12 13 13 13 12 11 10 8 6 5 3 3 3 3 3 4 4 4 4 5 7 7 4 4 6 8 10 9 5 2 2 4 4 5 7 7 6 8 10 10 11 12 13 14 15 15 17 19 19 20 21 22 22 22 21 23 28 30 32 32 33 35 38 40 40 41
5 9 13 15 15 14 12 10 10 10 12 13 13 13 11 10 10 11 11 11 12 12 10 9 8 7 4 2 3 3 2 1 1 2 3 2 2 3 5 9 9 7 5 6 7 6 4 2 2 3 4 5 5 6 5 5 7 8 8 9 11 12 13 14 15 16 18 19 19 19 19 21 21 21 22 23 25 27 28 29 31 34 38 39 38
6 11 14 15 15 13 11 10 10 11 12 13 13 13 12 11 11 11 10 9 10 9 8 7 6 5 3 2 2 1 2 3 4 5 6 3 0 2 5 9 10 10 9 8 6 4 3 4 4 4 4 3 3 3 3 4 6 7 8 9 11 12 13 14 15 17 17 18 20 20 19 19 20 21 22 22 21 24 26 27 28 29 32 35 35
8 11 12 12 11 11 10 10 11 12 12 12 12 11 11 11 11 10 9 8 8 8 8 8 7 6 4 3 2 5 5 6 7 8 7 4 2 4 6 8 10 10 9 6 4 2 3 3 2 2 1 1 1 2 3 4 5 6 8 10 10 12 13 14 15 16 17 17 18 19 19 19 19 19 20 21 21 21 23 24 25 24 25 29 32
9 10 10 10 10 9 10 11 12 12 12 11 10 10 10 11 11 10 9 8 8 8 9 9 10 9 7 4 4 6 6 6 8 10 10 7 6 6 7 7 7 6 5 3 2 1 2 2 1 1 1 2 2 3 3 4 5 7 9 10 11 12 13 14 15 15 16 16 17 17 17 18 18 19 19 20 21 21 21 21 22 22 21 22 25
10 9 9 9 9 9 9 10 12 13 12 10 9 9 10 11 11 10 9 9 8 9 10 11 12 12 10 7 8 10 9 7 8 10 11 10 8 9 8 5 2 2 2 2 2 4 4 3 2 2 2 2 3 4 4 6 8 9 10 12 13 13 13 13 14 14 14 14 15 15 16 16 16 17 18 18 19 21 21 21 21 21 20 20 20
10 9 10 9 8 7 8 9 10 12 12 9 8 8 9 10 10 9 9 9 9 10 12 13 13 11 9 9 12 12 10 8 8 10 11 10 8 7 5 3 1 1 1 3 4 5 3 1 1 0 2 3 5 6 7 8 10 11 12 12 13 13 13 13 12 12 12 12 12 12 13 15 15 15 16 16 17 19 20 21 20 20 20 19 18
11 11 11 11 8 7 8 9 10 12 12 10 8 8 9 9 9 9 7 6 6 8 11 11 9 7 8 10 10 9 9 8 7 9 11 10 7 4 1 1 1 3 4 5 4 2 1 2 2 3 4 5 7 9 10 10 11 11 12 12 12 11 11 11 11 11 11 10 10 10 12 14 15 15 14 15 15 16 17 18 19 19 18 18 16
13 11 11 11 9 8 8 9 11 12 12 10 9 9 10 10 9 8 5 3 3 6 7 6 5 6 9 10 10 8 8 9 7 8 10 9 5 2 3 3 3 3 3 2 2 3 5 6 5 5 6 7 9 11 12 12 12 11 11 10 9 10 9 9 10 11 10 10 10 10 12 14 16 15 15 15 15 15 16 16 17 18 17 16 15
13 12 11 10 10 9 9 10 11 11 11 11 10 10 9 9 10 8 4 2 5 7 6 6 7 8 10 11 11 9 8 9 8 7 8 6 3 5 5 4 3 3 2 4 5 5 6 6 6 7 8 9 11 12 12 11 10 10 9 8 8 9 9 9 10 10 10 10 10 11 12 15 16 15 15 16 15 15 16 17 17 17 17 16 14
11 12 11 9 8 9 10 10 9 9 10 11 10 8 6 7 11 11 6 4 7 11 11 10 10 9 10 11 12 11 8 8 7 6 5 3 2 6 6 3 2 2 4 5 6 6 6 6 7 8 8 10 12 11 9 8 7 7 7 8 8 9 9 9 10 10 10 10 11 11 13 16 16 15 15 16 17 16 17 18 18 17 17 16 15
8 10 9 8 8 9 10 9 7 8 9 8 7 6 5 5 8 10 7 5 8 12 13 12 10 9 10 10 12 11 8 5 4 4 4 3 4 4 3 2 1 3 5 6 5 5 6 7 8 8 8 9 10 7 5 5 6 6 6 7 8 9 9 10 11 11 11 11 11 11 13 15 16 16 15 16 16 17 18 19 19 19 18 17 16
7 8 8 8 8 8 8 8 8 9 8 6 5 5 4 3 5 7 6 7 9 10 10 10 10 10 9 9 11 10 7 6 9 8 2 3 5 5 3 1 2 5 7 6 4 4 6 7 8 8 7 7 6 4 4 4 5 6 6 7 8 8 9 11 11 11 11 12 11 10 12 14 15 15 15 15 15 17 18 19 20 19 19 19 18
8 8 7 7 6 6 7 7 7 8 7 5 6 6 5 4 5 5 7 10 10 8 7 8 9 9 8 8 9 8 5 6 7 8 6 3 4 7 4 1 2 4 6 6 7 8 9 7 6 6 5 4 3 3 4 4 5 5 6 7 8 9 9 10 10 10 10 11 11 10 10 12 13 14 13 13 13 15 16 18 19 19 19 19 19
7 6 4 4 4 4 6 6 6 6 6 5 5 6 6 6 6 7 8 10 10 8 6 6 7 8 7 5 5 4 4 6 6 5 6 5 3 6 5 2 3 5 5 7 9 11 10 6 4 4 4 3 2 3 3 4 5 5 6 7 8 8 8 9 9 10 10 10 10 10 9 9 11 12 12 11 11 13 14 15 17 18 18 18 18
4 3 3 3 4 5 6 7 7 8 8 7 6 7 8 8 8 9 9 8 9 10 9 9 10 9 5 2 1 2 3 4 5 4 4 2 1 5 6 5 5 6 9 10 9 8 6 4 3 4 4 3 1 1 2 4 5 5 6 6 6 7 7 8 8 9 9 9 10 9 8 9 10 10 10 11 10 11 12 13 14 15 16 16 17
5 6 6 5 5 6 7 8 8 9 9 9 9 9 9 10 11 11 10 9 10 10 8 7 7 6 5 4 4 4 4 5 4 4 3 4 5 5 7 7 8 11 14 13 9 5 4 3 2 4 6 5 2 2 3 5 5 5 6 6 6 6 6 6 7 8 8 8 9 8 8 9 10 9 9 10 9 9 10 10 12 13 14 15 16
4 6 8 8 9 9 10 11 12 12 12 11 11 11 12 13 14 13 12 12 12 10 7 6 8 7 6 5 6 6 6 6 6 5 6 7 8 9 9 9 9 11 13 11 8 5 4 4 4 6 8 8 6 6 6 7 7 7 7 6 6 6 6 6 6 6 7 7 7 7 8 9 9 9 9 9 8 8 9 10 10 11 12 13 14
3 3 6 9 12 14 14 15 16 17 15 13 12 13 13 14 14 14 14 14 15 13 11 9 11 12 11 8 7 8 8 6 6 7 9 10 12 14 14 11 8 9 11 9 5 3 3 4 6 8 10 9 10 10 11 11 11 11 10 8 7 6 5 5 5 6 6 6 6 6 6 7 8 8 9 10 8 8 9 10 9 10 11 12 13
Wind_Direction
201 197 187 174 171 179 194 210 218 218 220 229 243 257 262 255 333 357 335 326 325 325 327 330 333 335 336 338 340 335 328 318 308 303 299 300 305 309 311 311 307 304 306 310 308 306 308 307 309 315 315 311 316 327 338 348 353 357 358 356 356 352 345 340 333 327 327 328 327 323 319 310 296 286 283 283 279 272 267 266 262 256 255 257 255
200 193 184 176 172 174 190 209 216 218 219 226 237 259 262 208 169 328 316 305 303 309 315 322 327 327 329 335 336 332 328 326 323 316 304 295 298 303 306 307 304 299 300 304 302 298 302 305 306 312 313 307 309 319 329 339 347 350 353 352 352 354 351 345 339 333 330 331 332 330 327 320 305 289 280 280 280 274 268 264 259 253 251 253 254
199 190 182 179 179 179 192 207 210 212 218 227 243 275 274 156 146 314 303 293 295 298 301 307 314 315 320 327 327 324 322 321 322 320 313 302 296 297 301 303 301 298 297 300 299 295 298 303 305 309 309 303 301 311 321 330 340 343 345 346 347 349 350 347 342 337 333 332 333 333 330 325 313 297 280 273 274 274 269 264 261 257 254 251 251
197 188 183 184 189 189 197 208 212 214 217 223 243 260 260 291 308 295 285 283 285 281 280 290 298 300 305 313 317 316 315 314 312 312 314 309 299 296 298 298 299 297 296 299 301 298 297 301 303 304 305 300 296 304 315 323 330 335 336 338 340 342 345 344 342 338 333 331 332 333 330 325 317 305 289 274 270 269 268 266 263 261 257 252 248
199 190 187 191 196 196 201 211 217 222 221 220 233 243 246 260 271 270 268 270 268 262 267 278 281 281 288 296 301 304 307 306 302 303 308 307 301 299 298 299 300 297 297 299 300 299 296 296 298 299 300 299 295 299 310 318 322 325 327 329 332 334 336 338 339 337 334 331 331 332 330 326 319 310 299 286 277 273 270 267 264 261 259 254 249
201 194 193 196 200 202 206 215 224 225 220 219 234 244 246 250 250 247 250 258 264 267 274 279 278 277 280 284 287 289 291 290 289 294 300 299 298 299 299 301 301 297 297 298 298 299 298 297 296 294 296 300 297 294 301 310 314 317 319 322 325 325 327 332 336 335 333 332 330 330 330 328 322 312 304 295 286 279 275 269 262 258 257 256 251
204 197 198 201 207 211 211 227 247 235 222 215 239 267 268 262 254 249 253 262 269 272 276 279 279 276 278 281 284 284 282 281 284 292 298 298 298 298 296 297 296 294 297 300 302 304 304 302 299 294 294 297 296 292 294 301 307 312 315 317 319 320 322 327 332 332 332 332 331 329 327 327 324 316 308 299 288 279 275 271 263 256 255 256 253
203 196 199 206 212 219 221 232 244 234 228 228 252 271 272 272 270 267 269 272 271 271 273 277 280 281 283 286 290 292 290 289 293 298 300 301 302 299 294 290 289 290 296 305 308 308 307 305 301 298 296 296 295 292 291 295 302 309 314 315 316 318 321 324 327 329 330 331 331 329 326 324 323 321 314 307 297 287 279 273 269 261 257 257 256
199 191 197 207 211 224 232 234 229 225 225 228 246 260 262 268 272 272 276 276 274 275 278 282 287 289 290 293 296 295 293 293 298 300 300 301 304 302 295 288 285 287 296 305 306 303 304 305 303 301 298 295 295 294 293 294 297 302 308 313 316 318 320 322 324 327 329 329 330 329 325 321 321 320 316 311 305 296 287 280 276 269 263 262 259
192 191 199 201 209 230 235 236 234 228 223 220 234 250 254 264 274 275 278 279 278 282 286 289 293 295 296 297 295 291 292 296 300 303 303 303 304 301 295 288 284 285 292 298 298 299 303 305 306 304 299 297 296 295 295 295 295 297 301 308 314 316 319 322 324 327 329 329 328 326 322 319 319 317 312 309 306 299 290 284 278 273 268 264 260
187 193 197 196 222 243 233 233 236 229 225 225 229 240 249 260 272 271 269 273 277 283 287 292 298 300 300 298 294 294 300 305 305 304 304 304 303 301 295 289 284 284 286 289 293 299 302 305 309 308 305 302 297 294 296 298 299 299 298 303 310 313 316 321 325 329 331 329 325 321 318 316 317 315 310 307 304 300 294 287 280 274 270 266 261
190 196 195 204 235 238 225 229 232 225 225 229 231 237 247 256 265 264 263 268 274 280 286 293 298 300 299 297 295 296 301 305 304 302 302 303 302 300 295 291 290 287 285 287 291 297 301 306 310 311 313 310 303 299 300 301 301 300 299 304 310 313 317 321 326 332 332 327 322 320 317 315 314 313 308 304 301 297 293 287 279 272 269 266 263
194 198 202 223 245 232 223 226 225 222 227 230 232 237 244 252 259 261 262 267 271 276 283 288 290 291 292 294 296 297 299 301 300 299 299 300 300 299 297 296 296 293 289 288 291 296 302 307 309 314 322 321 314 308 304 303 301 299 302 307 310 314 317 320 327 333 332 327 322 320 318 315 311 309 305 299 294 290 287 283 276 269 265 261 260
197 205 215 241 248 235 228 223 220 227 228 225 231 237 243 249 253 256 261 265 268 271 275 280 284 286 288 291 295 298 299 299 299 301 304 303 303 305 304 301 299 296 292 291 292 294 300 305 308 315 322 323 320 314 308 306 305 305 310 312 313 316 317 320 329 335 333 328 324 322 322 319 313 309 306 297 288 283 279 277 272 267 262 257 255
204 213 221 244 244 234 228 223 225 231 226 226 233 237 242 247 247 250 255 259 265 270 273 274 276 279 281 285 291 298 304 306 305 306 307 305 306 309 308 304 301 298 295 294 293 292 296 302 307 313 318 320 322 321 315 312 311 313 314 314 314 315 315 320 332 335 332 327 325 325 324 321 315 312 310 302 288 278 272 270 268 265 262 256 252
213 216 225 241 240 232 229 229 230 231 230 233 237 239 242 245 247 250 254 261 268 273 276 276 277 281 286 290 295 300 306 305 300 297 297 297 301 306 307 306 304 301 299 297 293 290 294 300 306 311 313 318 324 324 318 315 316 318 317 315 314 313 314 321 330 331 328 326 327 328 328 327 324 320 316 307 288 272 265 263 261 260 258 254 250
219 223 232 238 235 231 232 232 231 233 236 238 242 245 246 247 250 253 257 265 272 278 284 285 285 286 288 291 295 294 293 292 290 290 290 290 294 298 302 306 306 304 302 299 294 291 293 297 305 309 312 319 325 324 319 318 320 320 317 315 314 314 315 320 325 328 327 328 331 333 335 338 337 330 322 311 288 267 257 252 250 248 245 243 243
222 230 235 235 233 235 236 235 234 236 240 243 246 248 248 250 254 256 259 267 275 283 288 286 283 284 286 290 293 291 290 293 298 299 294 288 285 287 296 306 307 304 304 302 297 294 293 296 305 311 314 319 323 322 321 321 321 319 316 315 316 317 316 316 320 325 328 330 334 338 341 345 344 337 329 319 292 262 248 244 242 239 236 233 233
222 231 233 231 235 240 241 240 240 242 246 249 249 249 252 254 257 258 262 269 274 280 282 282 286 292 294 295 295 295 295 299 303 304 297 286 280 283 298 310 308 304 304 303 300 298 296 301 310 313 312 314 319 321 322 320 318 317 317 317 317 318 316 315 318 322 326 332 338 342 347 349 346 341 338 330 297 258 246 243 240 237 234 228 225
221 227 229 231 237 241 244 246 248 249 251 250 248 251 255 257 258 259 263 266 267 272 279 284 290 296 298 298 297 299 300 301 302 303 299 288 280 286 303 310 305 301 301 301 303 305 304 307 312 311 308 310 317 320 319 317 316 317 319 319 318 318 316 316 318 320 327 336 341 345 350 351 347 344 345 342 316 261 247 244 238 236 233 225 218
218 224 228 232 237 241 246 248 247 247 245 243 244 248 251 251 251 251 256 261 265 271 279 284 289 294 297 299 299 303 306 304 301 300 298 291 284 290 302 305 299 298 299 300 303 306 306 309 309 304 303 309 317 318 315 312 313 316 320 320 320 320 319 320 321 323 332 343 345 347 351 353 350 348 350 350 340 275 251 250 238 233 231 222 214
219 225 230 235 241 245 247 245 243 243 243 244 246 242 238 240 242 243 253 264 268 274 284 289 291 293 295 297 298 302 308 306 300 295 292 289 286 291 300 301 296 297 298 299 302 301 302 305 303 299 305 314 319 315 309 306 310 315 320 322 325 327 326 326 328 330 340 350 350 349 353 356 354 352 354 356 354 304 252 259 243 232 229 218 209
223 230 237 241 243 245 244 242 241 242 244 247 244 233 232 242 245 248 260 270 271 278 288 293 294 292 293 296 296 298 304 305 297 289 286 286 286 290 298 300 297 297 299 300 301 299 299 301 300 303 314 319 316 309 303 306 311 317 322 326 331 334 333 335 339 339 345 354 354 351 354 359 356 354 357 0 360 348 270 278 253 231 227 217 206
219 226 234 238 238 238 239 239 237 238 242 245 240 236 245 254 257 263 274 278 278 283 288 291 292 291 293 296 294 295 301 300 289 283 286 289 287 289 301 307 303 302 301 299 299 299 298 300 304 313 321 316 307 304 305 310 316 319 323 330 335 337 338 342 346 345 347 356 358 354 356 360 359 357 360 3 4 7 294 296 289 230 220 212 204
209 215 222 227 232 234 237 240 240 241 245 248 247 251 258 264 269 277 284 283 282 283 283 286 288 288 289 292 291 293 296 292 288 290 294 294 291 294 308 312 307 304 300 297 298 299 300 305 313 320 317 306 302 306 309 313 318 321 325 332 336 339 342 345 346 345 349 359 3 359 358 360 0 360 3 7 12 25 82 192 305 253 215 209 204
217 223 225 229 235 239 242 247 251 254 258 261 264 268 270 271 272 276 278 279 279 278 278 284 288 286 286 290 292 292 289 288 292 296 295 291 289 300 309 310 305 301 298 298 300 301 303 309 314 309 300 296 302 309 310 314 320 324 330 337 341 343 346 347 346 347 350 358 6 5 1 1 2 4 9 14 18 26 41 86 175 183 204 211 212
219 222 226 234 244 250 254 258 262 265 267 268 269 270 269 267 265 265 268 271 272 273 280 289 293 289 286 289 293 294 291 291 293 293 287 284 289 300 306 306 301 299 299 301 306 308 308 306 292 280 280 288 300 307 311 318 326 330 336 345 348 349 351 350 349 351 351 355 4 9 7 4 3 7 13 17 21 25 31 42 104 186 199 209 219
237 239 248 263 268 265 262 262 262 263 263 262 264 264 263 263 264 266 269 269 269 276 285 289 289 285 284 289 293 292 291 292 291 285 281 283 290 298 301 301 300 299 300 306 315 319 302 281 261 261 272 284 299 309 315 328 339 340 346 356 359 359 359 357 356 357 356 356 1 10 13 11 7 7 12 18 22 26 29 34 43 75 182 200 212
257 266 277 282 279 274 269 264 260 261 262 261 259 257 257 262 267 269 272 273 277 283 285 282 280 283 288 291 290 286 286 287 285 281 281 285 292 297 297 296 298 296 296 303 315 285 263 266 270 284 292 300 314 325 334 350 359 359 2 8 12 12 11 10 7 5 5 4 3 7 15 16 12 9 11 15 22 28 29 30 35 43 54 78 151
254 261 266 265 263 262 260 257 256 260 262 257 252 250 252 257 262 266 272 279 283 285 284 283 285 290 293 292 285 279 277 277 277 279 284 290 294 295 293 295 300 297 286 277 256 244 257 274 291 304 312 322 338 350 357 4 12 18 21 20 21 22 20 18 15 10 10 12 10 8 14 17 14 12 12 13 17 24 28 28 31 36 40 43 46
234 231 229 234 239 241 240 240 243 248 250 249 248 249 251 253 257 263 271 279 285 286 286 290 294 297 297 292 283 276 271 270 273 278 283 289 292 291 291 295 306 306 270 236 239 252 268 289 305 314 330 349 5 12 17 22 24 22 20 16 13 13 12 12 12 8 7 11 12 10 14 17 14 14 16 14 13 18 24 27 29 31 34 37 40
234 226 221 226 232 236 239 245 245 235 234 242 247 249 253 255 256 262 270 278 283 285 289 295 300 302 299 292 285 280 276 274 277 279 281 282 283 284 285 287 300 301 256 240 251 268 284 300 312 330 360 14 19 21 25 29 19 6 2 3 3 4 4 6 7 5 4 7 9 9 12 17 17 17 18 15 13 15 19 24 28 30 31 32 36
242 228 222 224 230 237 244 250 246 232 233 244 250 253 256 256 255 260 268 272 276 281 288 294 296 297 297 291 282 273 267 267 273 282 288 281 267 262 276 290 303 303 254 256 273 282 289 300 320 358 360 358 1 2 1 358 354 350 354 2 5 4 4 6 6 6 5 7 8 8 10 14 18 22 23 18 13 13 17 21 26 29 31 31 33
237 223 222 227 232 238 240 239 236 237 245 253 256 258 261 260 260 264 267 271 274 278 282 283 281 281 278 244 187 164 159 171 342 11 9 340 242 224 260 289 304 317 312 302 299 288 284 299 319 326 329 328 331 336 331 331 345 356 6 11 11 9 7 6 7 8 9 9 10 10 11 14 16 22 28 25 15 12 16 20 24 28 30 31 32
230 224 226 231 238 242 242 239 237 239 244 249 254 259 261 261 264 266 267 268 269 272 275 273 268 262 244 201 167 106 9 348 340 351 11 24 289 264 284 290 298 309 316 316 308 294 300 312 305 302 311 316 322 333 341 355 10 19 21 17 15 12 9 7 7 8 8 10 12 13 13 17 19 21 26 29 22 15 17 21 23 28 32 31 31
223 225 229 237 245 248 249 250 248 245 245 246 251 255 254 254 259 263 266 267 266 267 273 272 264 252 238 238 309 337 347 344 331 329 341 356 334 316 308 291 286 296 308 317 323 325 317 309 292 286 308 349 20 26 25 22 21 20 17 13 8 4 3 4 4 3 2 4 8 11 12 15 19 19 22 28 27 19 19 21 22 27 33 32 31
219 230 240 249 254 254 253 254 251 249 249 250 253 255 251 248 250 252 253 255 252 249 251 254 255 255 250 250 299 327 331 323 312 313 317 319 322 328 324 303 287 294 313 332 337 256 229 214 177 101 59 54 36 19 12 9 6 3 0 358 355 353 355 357 355 354 355 356 360 4 8 12 16 17 18 24 27 24 21 20 21 24 31 31 31
233 246 256 260 264 267 263 255 248 248 250 250 254 258 248 239 239 241 246 251 246 232 228 238 251 262 270 283 303 312 308 293 286 290 295 303 317 329 332 331 325 328 333 309 233 205 197 178 140 99 55 31 4 349 347 347 348 348 346 344 344 346 348 349 348 347 348 350 353 358 3 8 13 14 14 20 26 25 22 22 20 21 26 31 34
242 251 260 264 266 263 254 246 242 246 250 250 251 249 238 233 237 242 252 265 264 247 239 244 254 269 288 302 308 306 292 272 264 269 276 291 310 321 330 351 31 143 191 198 185 172 162 146 135 15 358 350 333 329 336 338 336 339 341 338 339 341 341 344 347 346 346 350 353 357 4 10 13 13 13 17 23 25 25 26 24 23 26 32 36
248 249 255 262 261 246 240 244 243 243 248 251 243 232 226 230 238 246 258 275 269 249 243 246 256 280 302 314 321 309 276 256 253 259 269 286 300 295 297 63 106 155 163 170 172 168 284 293 291 307 324 329 324 325 334 337 335 338 342 340 341 347 349 352 358 359 360 5 6 6 13 16 15 14 14 16 20 23 25 27 29 28 30 35 39
251 246 247 255 258 248 243 243 238 236 244 245 232 218 217 221 230 245 266 275 236 235 245 253 270 295 310 324 336 319 269 250 251 260 269 283 284 219 165 145 159 168 172 211 256 294 295 286 286 300 312 319 321 323 330 335 336 340 347 351 357 5 8 13 18 14 13 20 23 25 30 29 21 17 18 19 20 24 28 30 31 32 34 39 45
245 247 247 247 244 238 237 237 233 233 237 235 225 220 221 222 225 233 251 252 230 238 256 274 282 294 306 320 334 326 278 246 240 258 279 287 242 182 169 170 195 221 266 283 285 297 300 294 294 303 310 313 314 318 325 332 337 347 357 8 20 23 22 29 33 26 23 33 38 41 45 42 31 24 26 29 29 31 33 34 34 34 35 40 48
238 244 245 240 231 224 228 234 235 230 225 224 224 224 222 223 225 223 215 211 228 238 252 265 272 284 300 315 330 328 296 256 240 253 273 276 170 165 171 176 213 266 290 299 299 298 299 298 299 302 304 306 310 318 330 337 345 1 14 23 34 35 32 38 42 36 32 38 45 50 54 50 39 31 34 38 39 40 42 41 40 38 37 39 46
236 237 240 239 231 222 224 230 230 216 211 216 224 222 210 213 220 216 205 211 236 245 253 259 265 278 297 316 331 331 320 319 336 307 253 191 136 139 165 153 16 324 305 303 299 291 286 288 295 299 298 298 308 331 357 355 355 16 31 34 39 40 37 39 42 40 37 39 43 49 58 56 45 37 38 43 45 45 44 44 44 43 41 41 45
235 238 238 236 229 222 225 231 222 208 204 205 205 200 186 176 188 192 197 224 244 251 251 254 266 285 303 326 340 340 344 13 19 11 7 163 160 165 167 89 347 317 308 309 313 314 307 295 289 293 293 291 309 354 26 12 4 22 30 29 34 37 36 34 34 33 34 37 36 39 51 56 50 40 37 43 48 48 46 44 46 47 47 46 46
230 235 239 241 236 227 227 224 210 203 205 201 187 185 184 183 190 207 225 234 240 246 250 258 275 289 301 320 334 339 357 19 12 6 13 45 152 163 153 135 247 258 286 308 313 315 314 301 276 273 278 286 320 6 22 12 11 18 20 19 21 22 24 28 27 22 25 32 29 24 35 49 50 44 38 39 46 50 50 48 48 48 49 51 52
221 225 230 232 221 208 207 207 200 199 205 200 192 202 215 216 220 235 243 238 233 234 244 264 280 283 284 299 313 327 360 7 347 334 1 30 101 160 168 191 216 221 250 282 293 298 301 297 277 262 263 276 328 355 360 4 8 7 5 9 11 8 7 16 18 14 15 22 23 19 23 36 43 44 39 36 41 48 50 51 51 51 51 52 53
216 230 233 225 225 223 215 211 211 215 215 211 214 225 232 231 228 231 236 244 249 250 254 264 271 266 254 236 255 293 312 323 315 311 328 345 194 184 186 199 230 254 264 273 283 287 282 278 279 277 277 288 349 21 357 353 355 354 353 356 358 354 354 1 6 4 5 11 14 13 15 25 34 37 33 30 36 43 47 51 55 54 54 55 55
234 235 235 234 238 238 228 222 226 229 228 227 228 229 230 234 236 237 244 259 266 264 262 257 250 241 226 214 224 256 277 273 268 276 273 252 234 214 207 220 243 257 264 273 286 289 267 260 276 282 288 303 343 39 12 353 345 339 337 340 343 343 343 347 353 351 352 360 3 1 4 19 32 34 27 25 32 38 38 46 57 58 56 59 60
210 225 235 236 236 239 239 237 237 239 243 247 246 239 238 244 249 255 261 262 257 257 257 238 222 230 256 259 241 246 269 271 252 238 239 243 246 251 259 262 251 239 244 262 286 297 289 303 314 303 300 311 331 349 352 347 338 332 328 326 328 331 331 334 339 339 338 345 351 351 357 14 27 29 23 24 32 33 27 33 51 62 60 60 63
205 246 261 256 253 255 256 252 248 248 253 257 255 251 252 255 257 259 258 251 244 244 245 238 235 247 263 266 249 247 254 246 213 210 230 250 258 263 272 277 258 230 231 247 267 276 280 297 302 297 299 311 326 335 339 338 334 333 332 327 321 320 321 321 324 325 327 334 341 345 356 11 17 16 16 22 30 33 27 29 47 66 67 60 62
Height
1533 1533 1533 1534 1535 1536 1537 1537 1537 1538 1538 1538 1539 1539 1540 1541 1541 1541 1541 1542 1542 1542 1542 1542 1541 1541 1540 1540 1540 1540 1539 1539 1539 1538 1538 1537 1536 1536 1536 1535 1535 1534 1534 1533 1533 1532 1531 1530 1530 1529 1528 1527 1527 1526 1525 1524 1522 1521 1519 1517 1515 1514 1511 1509 1505 1498 1496 1497 1494 1490 1489 1487 1485 1485 1485 1483 1483 1483 1483 1484 1485 1485 1486 1486 1487
1530 1531 1531 1532 1533 1533 1534 1535 1536 1536 1537 1537 1537 1537 1538 1539 1539 1539 1540 1540 1541 1541 1541 1540 1540 1540 1539 1539 1539 1538 1538 1537 1537 1537 1536 1535 1535 1535 1534 1534 1533 1532 1532 1531 1530 1529 1529 1528 1527 1527 1526 1525 1524 1523 1522 1521 1520 1518 1516 1514 1512 1511 1509 1506 1502 1497 1492 1491 1490 1486 1485 1483 1480 1479 1480 1479 1478 1478 1478 1478 1479 1480 1481 1482 1483
1527 1529 1529 1530 1530 1531 1532 1533 1534 1534 1535 1535 1535 1535 1536 1537 1537 1538 1538 1539 1539 1539 1539 1539 1539 1539 1538 1538 1537 1536 1536 1535 1535 1535 1534 1534 1533 1533 1533 1532 1531 1530 1529 1529 1528 1527 1526 1525 1525 1524 1523 1522 1522 1521 1519 1518 1517 1515 1514 1512 1510 1508 1507 1504 1500 1496 1490 1487 1486 1483 1480 1478 1476 1474 1475 1474 1473 1473 1473 1473 1474 1474 1475 1476 1477
1524 1526 1526 1527 1528 1530 1531 1531 1532 1532 1532 1533 1533 1533 1534 1535 1535 1536 1537 1537 1537 1538 1538 1538 1538 1537 1537 1536 1535 1535 1534 1533 1533 1533 1532 1532 1531 1531 1530 1530 1529 1528 1527 1526 1526 1525 1524 1523 1522 1521 1521 1520 1519 1518 1517 1515 1514 1513 1511 1509 1508 1505 1504 1502 1499 1495 1489 1484 1482 1480 1477 1474 1471 1469 1469 1469 1468 1469 1468 1468 1469 1469 1469 1471 1472
1521 1523 1523 1525 1526 1528 1529 1530 1530 1530 1531 1531 1531 1532 1532 1533 1534 1535 1535 1535 1536 1536 1537 1537 1536 1536 1535 1534 1534 1533 1532 1531 1531 1531 1530 1530 1529 1528 1528 1527 1526 1526 1525 1524 1523 1522 1521 1520 1519 1519 1517 1517 1516 1515 1514 1513 1511 1510 1508 1506 1505 1503 1501 1499 1496 1493 1488 1483 1479 1477 1474 1471 1468 1466 1465 1465 1463 1463 1464 1463 1463 1464 1464 1465 1466
1519 1520 1521 1523 1525 1527 1528 1529 1530 1530 1530 1530 1530 1530 1531 1532 1533 1533 1534 1534 1534 1534 1535 1535 1534 1534 1533 1532 1532 1531 1530 1529 1529 1528 1528 1528 1527 1526 1525 1525 1524 1523 1523 1522 1520 1519 1519 1518 1517 1516 1515 1513 1513 1512 1511 1510 1508 1506 1505 1503 1502 1500 1498 1496 1494 1490 1486 1482 1477 1474 1471 1468 1465 1462 1462 1462 1460 1459 1458 1458 1458 1459 1459 1459 1460
1516 1518 1520 1522 1524 1526 1527 1528 1529 1530 1530 1528 1529 1529 1529 1530 1531 1531 1531 1532 1532 1532 1532 1532 1532 1532 1531 1530 1530 1529 1528 1527 1526 1526 1526 1525 1525 1524 1523 1522 1521 1521 1520 1519 1518 1517 1516 1515 1514 1513 1512 1511 1510 1509 1508 1506 1505 1503 1502 1501 1499 1497 1495 1493 1490 1487 1484 1479 1476 1472 1468 1466 1463 1460 1458 1458 1456 1455 1454 1454 1453 1454 1455 1454 1454
1514 1517 1519 1521 1523 1525 1525 1525 1525 1527 1528 1527 1527 1528 1528 1529 1529 1529 1529 1530 1530 1530 1530 1530 1530 1529 1529 1528 1527 1526 1525 1524 1524 1524 1523 1523 1522 1521 1520 1520 1519 1518 1517 1516 1515 1514 1513 1512 1511 1510 1509 1508 1507 1506 1505 1503 1502 1501 1500 1498 1496 1494 1492 1490 1487 1485 1481 1477 1473 1470 1466 1463 1460 1458 1456 1454 1452 1451 1451 1450 1449 1449 1450 1450 1450
1513 1516 1517 1518 1521 1523 1524 1523 1523 1525 1526 1525 1526 1526 1526 1527 1527 1527 1528 1528 1528 1528 1528 1528 1527 1526 1526 1525 1525 1524 1522 1522 1521 1521 1521 1520 1520 1519 1518 1517 1516 1515 1514 1513 1512 1512 1510 1509 1508 1507 1506 1505 1504 1503 1502 1501 1500 1498 1497 1495 1494 1492 1489 1487 1484 1482 1479 1475 1470 1467 1464 1461 1458 1455 1453 1451 1449 1447 1446 1446 1444 1444 1445 1445 1445
1512 1514 1515 1516 1519 1522 1523 1522 1522 1523 1523 1524 1524 1524 1524 1525 1525 1525 1526 1526 1526 1526 1526 1525 1525 1524 1524 1523 1523 1522 1520 1520 1519 1519 1518 1518 1517 1516 1515 1515 1514 1513 1512 1511 1510 1509 1508 1507 1505 1505 1504 1502 1502 1500 1499 1499 1497 1495 1494 1492 1491 1489 1486 1484 1482 1479 1476 1472 1468 1465 1461 1458 1455 1453 1450 1448 1446 1444 1442 1442 1440 1440 1441 1440 1439
1510 1512 1513 1514 1517 1519 1521 1521 1520 1521 1521 1522 1522 1522 1522 1523 1523 1523 1523 1524 1524 1523 1523 1523 1522 1522 1521 1521 1521 1520 1519 1518 1517 1517 1516 1515 1514 1513 1513 1512 1512 1511 1510 1509 1508 1507 1506 1505 1503 1502 1501 1499 1498 1497 1496 1496 1494 1492 1491 1490 1488 1486 1484 1482 1480 1477 1474 1470 1466 1462 1459 1454 1451 1449 1446 1444 1442 1440 1438 1438 1436 1435 1436 1435 1433
1508 1510 1511 1512 1513 1516 1519 1520 1519 1519 1519 1520 1520 1520 1520 1520 1520 1521 1521 1521 1521 1521 1520 1520 1520 1520 1519 1519 1519 1518 1517 1517 1516 1515 1514 1513 1512 1511 1510 1510 1509 1508 1507 1506 1505 1504 1503 1502 1501 1500 1498 1497 1495 1494 1493 1492 1491 1489 1488 1486 1485 1484 1482 1480 1477 1474 1471 1467 1463 1459 1455 1451 1446 1444 1442 1440 1438 1436 1434 1433 1432 1431 1431 1431 1429
1503 1505 1507 1510 1512 1516 1518 1518 1517 1517 1517 1517 1518 1517 1517 1518 1518 1518 1518 1518 1518 1518 1518 1518 1518 1517 1517 1517 1517 1516 1516 1515 1514 1514 1512 1511 1511 1509 1508 1507 1506 1505 1505 1504 1503 1502 1501 1500 1499 1497 1496 1494 1493 1491 1490 1489 1487 1486 1485 1483 1482 1481 1479 1477 1475 1472 1468 1464 1460 1456 1451 1448 1443 1439 1437 1436 1433 1431 1429 1427 1427 1427 1426 1425 1424
1499 1502 1505 1509 1512 1514 1516 1515 1515 1515 1515 1515 1515 1515 1515 1515 1516 1516 1516 1516 1516 1515 1516 1516 1515 1515 1515 1515 1515 1514 1514 1514 1513 1512 1511 1510 1509 1508 1506 1505 1504 1503 1502 1501 1500 1500 1499 1498 1497 1495 1494 1492 1491 1489 1487 1486 1484 1483 1482 1480 1478 1477 1475 1473 1471 1469 1465 1462 1458 1452 1448 1444 1439 1434 1431 1430 1427 1425 1423 1421 1421 1421 1421 1420 1420
1500 1501 1504 1507 1509 1510 1512 1512 1512 1512 1512 1513 1512 1512 1513 1513 1513 1514 1514 1514 1513 1513 1513 1513 1512 1513 1513 1512 1513 1512 1512 1512 1511 1510 1509 1508 1507 1506 1504 1503 1501 1500 1499 1498 1498 1497 1497 1496 1494 1493 1491 1490 1488 1487 1485 1483 1482 1480 1478 1476 1475 1473 1471 1470 1467 1464 1462 1459 1455 1449 1443 1439 1434 1428 1424 1422 1420 1418 1417 1415 1414 1415 1415 1415 1415
1501 1501 1502 1505 1506 1507 1508 1509 1510 1510 1510 1510 1510 1510 1511 1511 1511 1512 1512 1512 1511 1511 1511 1511 1511 1511 1511 1511 1511 1511 1510 1510 1508 1507 1506 1505 1504 1503 1502 1501 1499 1498 1496 1496 1495 1495 1494 1493 1492 1491 1489 1487 1486 1484 1482 1481 1479 1477 1475 1472 1471 1469 1467 1466 1463 1461 1458 1455 1450 1445 1438 1432 1426 1420 1416 1413 1410 1409 1409 1409 1408 1408 1410 1409 1408
1501 1499 1500 1502 1503 1504 1506 1507 1507 1508 1508 1508 1508 1508 1509 1509 1510 1510 1510 1510 1510 1510 1510 1509 1509 1509 1510 1510 1509 1508 1507 1506 1505 1504 1503 1502 1501 1500 1499 1498 1497 1495 1494 1493 1493 1492 1492 1491 1490 1488 1487 1485 1484 1482 1480 1478 1476 1474 1472 1469 1467 1465 1463 1462 1459 1457 1454 1450 1445 1440 1433 1425 1418 1411 1407 1403 1400 1401 1401 1399 1398 1400 1403 1403 1403
1498 1498 1499 1499 1500 1501 1503 1504 1505 1506 1506 1506 1506 1507 1507 1508 1508 1508 1508 1508 1509 1509 1509 1507 1507 1507 1507 1507 1506 1505 1504 1503 1502 1500 1499 1497 1497 1497 1497 1496 1494 1493 1491 1491 1490 1490 1489 1489 1488 1486 1485 1483 1482 1480 1478 1476 1474 1472 1469 1466 1464 1462 1460 1458 1455 1451 1448 1444 1439 1433 1426 1418 1411 1404 1398 1393 1391 1391 1390 1387 1388 1392 1394 1395 1396
1495 1496 1496 1497 1498 1499 1500 1502 1503 1503 1504 1504 1505 1506 1506 1507 1507 1507 1508 1508 1508 1508 1506 1504 1504 1504 1504 1504 1503 1502 1501 1500 1499 1498 1496 1495 1494 1494 1494 1493 1491 1490 1489 1488 1488 1487 1487 1486 1485 1484 1483 1481 1480 1478 1476 1474 1472 1469 1467 1464 1461 1459 1456 1454 1451 1447 1443 1438 1432 1425 1417 1410 1404 1397 1390 1384 1380 1380 1379 1378 1380 1383 1384 1387 1391
1492 1493 1494 1494 1496 1497 1498 1500 1501 1502 1503 1504 1506 1508 1508 1508 1508 1507 1507 1507 1506 1505 1503 1502 1502 1502 1502 1501 1500 1500 1499 1497 1496 1494 1493 1492 1492 1491 1491 1490 1489 1488 1487 1486 1485 1484 1484 1483 1482 1481 1480 1479 1478 1476 1474 1472 1469 1467 1465 1462 1459 1456 1454 1451 1448 1445 1441 1435 1429 1422 1414 1407 1400 1393 1384 1377 1372 1370 1370 1371 1372 1374 1376 1380 1385
1489 1491 1492 1493 1494 1496 1496 1498 1499 1499 1500 1501 1503 1506 1506 1506 1506 1505 1505 1505 1504 1503 1502 1501 1501 1500 1499 1498 1498 1497 1496 1495 1493 1491 1490 1490 1489 1489 1489 1488 1486 1486 1485 1484 1483 1482 1481 1481 1480 1479 1478 1477 1475 1474 1472 1469 1467 1465 1463 1460 1457 1455 1452 1449 1447 1444 1440 1435 1428 1421 1413 1404 1397 1388 1379 1373 1367 1364 1364 1365 1365 1367 1370 1374 1378
1488 1489 1490 1492 1493 1494 1494 1495 1495 1495 1496 1496 1499 1501 1503 1502 1501 1499 1500 1502 1502 1501 1500 1499 1498 1497 1496 1496 1496 1495 1494 1492 1490 1489 1488 1487 1487 1487 1486 1486 1485 1483 1482 1481 1480 1479 1479 1478 1477 1476 1475 1474 1473 1471 1469 1467 1465 1463 1461 1458 1456 1453 1451 1448 1445 1442 1438 1433 1427 1420 1411 1403 1394 1385 1376 1369 1363 1360 1360 1360 1360 1362 1364 1368 1374
1486 1488 1489 1490 1491 1492 1492 1492 1492 1494 1494 1495 1497 1498 1498 1498 1497 1495 1495 1497 1498 1498 1497 1496 1495 1494 1494 1493 1493 1492 1491 1489 1488 1487 1486 1485 1485 1485 1484 1484 1483 1481 1480 1478 1477 1477 1476 1475 1475 1474 1473 1472 1471 1469 1467 1465 1463 1461 1459 1457 1454 1452 1449 1447 1444 1440 1437 1432 1426 1419 1411 1403 1395 1386 1377 1369 1362 1358 1356 1356 1356 1358 1360 1365 1371
1485 1486 1487 1488 1489 1489 1490 1490 1491 1492 1492 1493 1494 1494 1494 1494 1493 1492 1492 1493 1493 1494 1494 1493 1492 1491 1491 1490 1489 1489 1488 1487 1486 1484 1483 1483 1483 1483 1483 1481 1480 1479 1477 1476 1475 1474 1473 1473 1473 1472 1471 1470 1468 1467 1465 1464 1462 1459 1457 1455 1453 1450 1448 1445 1442 1439 1435 1431 1426 1420 1412 1404 1397 1388 1379 1372 1364 1357 1355 1355 1355 1355 1358 1364 1370
1483 1484 1486 1486 1486 1487 1488 1488 1488 1489 1489 1489 1490 1490 1490 1491 1491 1491 1490 1490 1490 1490 1491 1490 1490 1489 1488 1487 1487 1486 1485 1484 1483 1482 1481 1481 1481 1481 1481 1479 1478 1477 1475 1474 1473 1472 1472 1471 1471 1470 1469 1467 1466 1465 1464 1462 1460 1458 1456 1454 1451 1449 1446 1444 1441 1438 1434 1430 1426 1420 1413 1406 1399 1391 1384 1376 1367 1357 1354 1356 1356 1356 1359 1364 1370
1481 1482 1483 1484 1485 1485 1486 1486 1486 1486 1487 1487 1487 1487 1488 1488 1488 1488 1487 1487 1487 1487 1488 1488 1487 1486 1485 1485 1485 1484 1483 1482 1481 1480 1480 1480 1480 1480 1479 1477 1476 1475 1473 1472 1471 1470 1470 1470 1469 1467 1466 1465 1464 1464 1462 1460 1458 1456 1454 1452 1450 1448 1445 1442 1440 1437 1434 1430 1426 1421 1415 1408 1401 1393 1385 1377 1368 1360 1356 1357 1359 1360 1362 1366 1369
1478 1480 1481 1482 1483 1483 1483 1484 1484 1483 1484 1484 1484 1485 1485 1485 1485 1485 1485 1485 1485 1485 1485 1485 1484 1483 1482 1482 1482 1481 1480 1480 1479 1479 1478 1478 1478 1478 1477 1475 1474 1473 1471 1470 1469 1469 1469 1468 1466 1465 1464 1464 1463 1462 1460 1458 1457 1455 1453 1451 1449 1447 1444 1442 1440 1437 1433 1430 1426 1422 1417 1411 1404 1395 1386 1379 1373 1366 1362 1360 1360 1362 1364 1366 1368
1475 1477 1478 1478 1479 1479 1480 1480 1480 1480 1480 1481 1481 1482 1482 1482 1483 1482 1483 1483 1483 1483 1483 1482 1481 1480 1479 1479 1479 1478 1478 1477 1477 1477 1477 1476 1476 1475 1474 1473 1472 1470 1469 1469 1468 1467 1466 1465 1464 1463 1463 1463 1462 1461 1459 1457 1455 1454 1452 1450 1448 1446 1444 1442 1440 1437 1434 1430 1427 1423 1418 1412 1406 1399 1391 1385 1380 1374 1369 1366 1363 1362 1363 1364 1366
1473 1475 1475 1476 1476 1476 1477 1477 1477 1478 1478 1478 1479 1479 1479 1480 1480 1480 1481 1481 1481 1480 1480 1479 1479 1478 1477 1477 1476 1475 1475 1475 1475 1475 1474 1474 1474 1473 1472 1471 1470 1469 1468 1467 1466 1466 1464 1463 1462 1462 1461 1461 1460 1459 1457 1455 1454 1452 1451 1449 1447 1446 1443 1441 1439 1436 1433 1430 1426 1423 1418 1414 1409 1404 1397 1391 1386 1381 1377 1373 1368 1364 1362 1362 1362
1471 1473 1473 1473 1474 1474 1474 1475 1475 1475 1475 1476 1476 1477 1477 1477 1477 1478 1478 1478 1478 1478 1477 1477 1477 1476 1475 1475 1474 1473 1473 1473 1472 1472 1472 1471 1471 1470 1469 1469 1468 1467 1466 1465 1464 1464 1462 1461 1461 1460 1460 1459 1458 1457 1455 1454 1453 1452 1450 1448 1447 1445 1443 1441 1438 1436 1433 1430 1426 1423 1419 1415 1412 1407 1402 1396 1391 1387 1382 1378 1373 1368 1365 1363 1361
1469 1470 1470 1471 1472 1472 1473 1473 1473 1473 1474 1474 1474 1475 1475 1475 1475 1475 1475 1475 1475 1475 1475 1474 1474 1473 1473 1472 1472 1471 1471 1471 1470 1470 1470 1469 1469 1468 1468 1467 1466 1465 1465 1464 1463 1462 1460 1460 1460 1459 1458 1458 1457 1455 1454 1453 1452 1451 1449 1448 1446 1444 1442 1440 1438 1436 1433 1430 1427 1424 1420 1417 1413 1410 1406 1401 1396 1392 1388 1384 1380 1375 1371 1369 1366
1467 1468 1469 1470 1470 1471 1471 1471 1471 1472 1472 1471 1472 1472 1472 1472 1473 1473 1473 1473 1472 1472 1472 1472 1471 1471 1470 1470 1470 1469 1469 1469 1469 1468 1468 1468 1467 1467 1466 1465 1465 1464 1463 1463 1462 1461 1460 1459 1459 1458 1457 1457 1456 1455 1454 1453 1452 1451 1449 1447 1445 1443 1441 1440 1438 1436 1433 1430 1427 1425 1421 1418 1415 1411 1408 1405 1400 1396 1393 1390 1386 1382 1378 1376 1372
1465 1467 1468 1468 1468 1469 1469 1469 1469 1469 1469 1469 1469 1470 1470 1470 1470 1471 1471 1471 1471 1471 1471 1471 1470 1469 1469 1469 1468 1467 1467 1467 1467 1467 1467 1466 1466 1465 1465 1463 1463 1463 1463 1462 1461 1460 1459 1458 1458 1457 1457 1456 1455 1454 1454 1453 1452 1451 1449 1447 1445 1443 1441 1440 1438 1436 1433 1430 1428 1426 1422 1420 1417 1413 1410 1407 1404 1401 1398 1395 1391 1387 1383 1380 1376
1464 1465 1466 1466 1467 1466 1466 1466 1466 1466 1467 1467 1467 1468 1468 1468 1468 1468 1469 1469 1469 1469 1469 1469 1469 1468 1468 1468 1467 1466 1466 1466 1466 1466 1465 1465 1465 1464 1463 1462 1461 1461 1461 1461 1461 1460 1458 1458 1457 1457 1456 1455 1454 1454 1453 1452 1451 1450 1448 1447 1445 1443 1442 1440 1438 1436 1434 1431 1429 1426 1423 1421 1418 1415 1412 1409 1407 1405 1402 1399 1395 1390 1387 1384 1381
1462 1464 1464 1465 1464 1464 1464 1464 1464 1465 1465 1465 1466 1466 1466 1466 1466 1466 1467 1467 1467 1467 1467 1468 1468 1467 1467 1467 1467 1466 1465 1465 1464 1464 1464 1464 1464 1463 1462 1461 1460 1460 1459 1459 1459 1459 1458 1457 1457 1456 1455 1454 1453 1453 1452 1451 1451 1449 1448 1447 1445 1443 1442 1440 1438 1436 1434 1432 1429 1427 1425 1422 1420 1417 1414 1412 1409 1407 1404 1401 1398 1394 1391 1389 1386
1460 1461 1462 1462 1462 1462 1463 1463 1463 1463 1464 1464 1464 1465 1464 1464 1464 1464 1464 1465 1465 1466 1466 1466 1466 1466 1466 1466 1465 1465 1464 1463 1463 1463 1463 1463 1463 1462 1461 1460 1459 1459 1458 1458 1458 1458 1458 1457 1456 1455 1455 1454 1453 1452 1452 1451 1450 1449 1448 1446 1445 1443 1442 1440 1438 1437 1435 1432 1430 1428 1426 1424 1421 1419 1416 1414 1411 1409 1406 1403 1401 1398 1396 1394 1391
1458 1459 1460 1460 1460 1460 1461 1462 1462 1462 1462 1462 1462 1462 1462 1462 1462 1462 1463 1463 1464 1464 1464 1464 1464 1464 1464 1465 1464 1464 1463 1463 1462 1461 1461 1461 1461 1460 1459 1459 1458 1457 1457 1456 1457 1457 1457 1457 1456 1455 1454 1453 1453 1452 1452 1451 1450 1449 1447 1446 1445 1443 1441 1440 1438 1437 1435 1433 1431 1429 1427 1425 1422 1420 1418 1415 1413 1411 1408 1406 1404 1402 1400 1398 1395
1457 1458 1458 1458 1459 1459 1460 1460 1461 1460 1460 1460 1461 1461 1461 1461 1461 1461 1462 1462 1462 1463 1463 1462 1462 1462 1463 1463 1463 1463 1462 1462 1461 1460 1460 1459 1459 1459 1458 1457 1456 1456 1456 1456 1456 1457 1457 1456 1456 1455 1454 1453 1452 1452 1451 1450 1449 1448 1447 1446 1444 1443 1441 1440 1438 1437 1435 1433 1431 1429 1427 1425 1423 1421 1419 1416 1414 1413 1411 1408 1406 1404 1402 1400 1398
1455 1456 1457 1457 1457 1457 1458 1458 1459 1459 1458 1459 1459 1459 1459 1459 1459 1460 1460 1461 1461 1461 1461 1461 1461 1462 1462 1462 1462 1461 1461 1461 1460 1459 1458 1458 1458 1458 1457 1456 1455 1455 1455 1456 1456 1457 1456 1456 1455 1454 1454 1453 1452 1451 1451 1450 1449 1448 1447 1445 1444 1442 1441 1439 1438 1436 1434 1433 1431 1429 1428 1426 1424 1422 1420 1418 1416 1414 1413 1411 1409 1407 1404 1403 1401
1454 1455 1455 1456 1456 1456 1456 1457 1457 1457 1456 1457 1457 1457 1457 1457 1457 1458 1459 1460 1460 1459 1460 1460 1461 1461 1461 1461 1461 1460 1460 1459 1459 1458 1457 1457 1457 1457 1456 1456 1455 1455 1455 1456 1456 1456 1456 1455 1455 1454 1453 1452 1451 1451 1450 1449 1448 1447 1446 1444 1443 1441 1440 1439 1437 1436 1434 1433 1432 1430 1428 1426 1425 1423 1421 1419 1417 1416 1414 1413 1411 1410 1408 1406 1404
1451 1453 1454 1454 1454 1454 1454 1455 1455 1455 1455 1455 1455 1456 1456 1456 1456 1457 1457 1458 1458 1458 1458 1459 1460 1460 1459 1459 1459 1458 1458 1458 1457 1456 1456 1456 1456 1456 1455 1455 1455 1455 1456 1456 1456 1456 1455 1455 1454 1454 1453 1452 1451 1450 1449 1448 1447 1446 1445 1444 1442 1441 1440 1439 1437 1436 1435 1433 1432 1430 1428 1427 1425 1424 1422 1421 1419 1418 1416 1415 1413 1412 1410 1408 1407
1449 1450 1451 1452 1452 1452 1452 1453 1453 1454 1454 1454 1454 1454 1455 1455 1455 1456 1456 1457 1457 1456 1457 1457 1458 1457 1457 1457 1457 1457 1456 1456 1456 1455 1455 1454 1455 1455 1454 1455 1455 1455 1455 1455 1455 1455 1454 1454 1453 1453 1452 1451 1450 1449 1449 1448 1446 1445 1445 1443 1442 1441 1440 1439 1438 1437 1435 1434 1433 1431 1429 1428 1427 1425 1423 1422 1420 1419 1417 1416 1415 1414 1412 1411 1409
1448 1448 1449 1450 1450 1449 1450 1451 1452 1452 1452 1452 1453 1453 1454 1454 1454 1455 1456 1456 1455 1455 1455 1456 1456 1456 1456 1455 1455 1455 1455 1455 1454 1454 1454 1454 1454 1454 1454 1454 1454 1454 1455 1454 1454 1454 1454 1453 1453 1452 1451 1450 1449 1449 1448 1447 1446 1445 1444 1443 1442 1441 1440 1439 1438 1437 1436 1435 1434 1432 1430 1429 1428 1427 1425 1423 1422 1420 1419 1418 1416 1415 1414 1413 1411
1448 1448 1449 1449 1448 1448 1449 1449 1450 1451 1451 1451 1451 1452 1452 1452 1453 1454 1455 1455 1455 1454 1455 1455 1455 1455 1454 1454 1453 1453 1453 1453 1453 1453 1452 1452 1453 1453 1453 1453 1453 1453 1454 1453 1453 1453 1453 1452 1452 1451 1450 1449 1449 1448 1448 1447 1446 1445 1444 1443 1442 1442 1441 1440 1439 1438 1437 1436 1435 1433 1432 1430 1429 1428 1427 1425 1423 1422 1420 1419 1418 1417 1416 1414 1413
1447 1447 1448 1448 1448 1448 1448 1449 1449 1450 1450 1450 1451 1451 1451 1451 1452 1453 1454 1454 1454 1453 1454 1454 1454 1453 1453 1453 1452 1452 1452 1452 1452 1452 1451 1451 1451 1452 1452 1453 1452 1452 1452 1452 1452 1452 1452 1451 1451 1450 1449 1449 1448 1448 1447 1447 1446 1445 1444 1443 1443 1442 1441 1440 1439 1438 1437 1436 1435 1434 1433 1431 1430 1430 1429 1427 1425 1423 1422 1421 1419 1418 1417 1416 1415
1446 1446 1446 1447 1448 1448 1448 1448 1449 1449 1449 1450 1450 1450 1450 1451 1451 1452 1453 1453 1452 1452 1452 1452 1452 1452 1452 1451 1451 1450 1450 1451 1452 1452 1451 1451 1451 1451 1451 1451 1451 1451 1451 1451 1451 1451 1451 1450 1450 1449 1449 1448 1448 1448 1447 1446 1445 1445 1444 1443 1442 1442 1441 1440 1440 1439 1438 1437 1436 1435 1434 1432 1431 1431 1430 1429 1427 1425 1424 1422 1421 1420 1419 1418 1417
1445 1445 1446 1446 1447 1447 1447 1448 1448 1448 1449 1449 1449 1449 1450 1450 1451 1451 1451 1451 1452 1452 1452 1451 1451 1451 1451 1450 1450 1449 1448 1449 1451 1451 1451 1450 1450 1451 1451 1450 1450 1450 1450 1450 1450 1450 1450 1449 1449 1448 1448 1447 1447 1447 1447 1446 1446 1445 1444 1443 1443 1442 1441 1440 1440 1439 1438 1437 1436 1436 1435 1433 1432 1432 1431 1430 1429 1427 1425 1424 1422 1421 1420 1419 1418
1445 1445 1445 1446 1446 1447 1447 1447 1447 1447 1448 1448 1449 1449 1449 1449 1449 1449 1449 1450 1450 1451 1452 1451 1450 1450 1450 1450 1449 1448 1448 1449 1450 1450 1450 1449 1449 1450 1450 1450 1450 1450 1450 1450 1450 1449 1449 1449 1448 1448 1447 1447 1447 1447 1447 1446 1446 1445 1444 1443 1443 1442 1441 1441 1440 1439 1438 1437 1437 1436 1435 1434 1433 1432 1431 1431 1430 1428 1427 1426 1424 1423 1422 1421 1420
1444 1445 1445 1445 1446 1446 1446 1446 1446 1446 1447 1447 1448 1448 1448 1448 1448 1448 1448 1448 1448 1449 1450 1450 1449 1449 1450 1450 1449 1448 1448 1449 1449 1450 1449 1449 1449 1449 1450 1450 1450 1449 1448 1448 1448 1448 1448 1448 1448 1447 1446 1446 1447 1447 1447 1446 1445 1445 1444 1443 1443 1442 1441 1441 1440 1439 1438 1438 1437 1436 1435 1435 1434 1433 1432 1431 1430 1429 1428 1427 1426 1425 1424 1423 1421
1444 1444 1445 1445 1445 1445 1445 1445 1445 1444 1445 1445 1446 1446 1446 1446 1446 1446 1447 1447 1447 1447 1447 1448 1448 1448 1448 1448 1448 1447 1447 1448 1449 1449 1448 1448 1448 1448 1449 1449 1449 1448 1447 1447 1447 1447 1447 1447 1446 1445 1445 1445 1446 1446 1446 1445 1445 1444 1443 1443 1442 1442 1441 1441 1440 1439 1438 1438 1437 1436 1435 1435 1434 1433 1432 1431 1431 1430 1429 1428 1427 1426 1425 1424 1423
1442 1443 1444 1444 1444 1444 1445 1444 1443 1443 1443 1443 1443 1444 1444 1444 1444 1444 1445 1445 1445 1444 1445 1446 1446 1446 1446 1447 1447 1447 1447 1447 1448 1448 1448 1447 1447 1447 1447 1447 1448 1447 1447 1447 1447 1447 1447 1446 1445 1444 1444 1444 1445 1445 1445 1444 1444 1443 1443 1442 1442 1441 1441 1440 1440 1439 1438 1437 1437 1436 1435 1435 1434 1433 1432 1432 1431 1430 1430 1429 1428 1428 1427 1426 1425